Time,TemperatureF,DewpointF,PressureIn,WindDirection,WindDirectionDegrees,WindSpeedMPH,WindSpeedGustMPH,Humidity,HourlyPrecipIn,Conditions,Clouds,dailyrainin,SoftwareType,DateUTC
2013-10-10 00:11:00,53.0,48.0,29.99,NE,40,4.0,8.0,83,0.00,,,0.00,,2013-10-10 07:11:00,
2013-10-10 00:21:00,53.0,48.0,29.99,NE,40,4.0,8.0,83,0.00,,,0.00,,2013-10-10 07:21:00,
2013-10-10 00:42:00,53.0,48.0,29.99,NNE,31,6.0,10.0,83,0.00,,,0.00,,2013-10-10 07:42:00,
2013-10-10 00:52:00,53.0,48.0,29.98,ENE,74,4.0,7.0,83,0.00,,,0.00,,2013-10-10 07:52:00,
2013-10-10 01:11:00,53.0,48.0,29.99,ENE,58,0.0,5.0,83,0.00,,,0.00,,2013-10-10 08:11:00,
2013-10-10 01:22:00,52.0,47.0,30.00,NNE,15,0.0,3.0,84,0.00,,,0.00,,2013-10-10 08:22:00,
2013-10-10 01:42:00,51.0,46.0,30.00,NE,41,0.0,3.0,84,0.00,,,0.00,,2013-10-10 08:42:00,
2013-10-10 01:52:00,50.0,46.0,30.00,NE,49,3.0,4.0,85,0.00,,,0.00,,2013-10-10 08:52:00,
2013-10-10 02:11:00,51.0,47.0,29.99,East,85,4.0,6.0,86,0.00,,,0.00,,2013-10-10 09:11:00,
2013-10-10 02:21:00,52.0,48.0,29.99,NE,39,3.0,7.0,86,0.00,,,0.00,,2013-10-10 09:21:00,
2013-10-10 02:33:00,52.0,48.0,29.99,NE,39,3.0,7.0,86,0.00,,,0.00,,2013-10-10 09:33:00,
2013-10-10 02:43:00,52.0,48.0,29.99,NE,39,3.0,7.0,86,0.00,,,0.00,,2013-10-10 09:43:00,
2013-10-10 02:53:00,52.0,48.0,29.99,NE,36,1.0,4.0,86,0.00,,,0.00,,2013-10-10 09:53:00,
2013-10-10 03:12:00,52.0,48.0,29.99,NE,34,0.0,4.0,86,0.00,,,0.00,,2013-10-10 10:12:00,
2013-10-10 03:23:00,52.0,48.0,29.99,ENE,62,0.0,2.0,86,0.00,,,0.00,,2013-10-10 10:23:00,
2013-10-10 03:42:00,53.0,49.0,29.98,ENE,64,2.0,8.0,86,0.00,,,0.00,,2013-10-10 10:42:00,
2013-10-10 03:53:00,53.0,49.0,29.98,NE,56,0.0,3.0,86,0.00,,,0.00,,2013-10-10 10:53:00,
2013-10-10 04:12:00,53.0,49.0,29.98,NE,53,1.0,5.0,87,0.00,,,0.00,,2013-10-10 11:12:00,
2013-10-10 04:21:00,53.0,49.0,29.97,ENE,76,0.0,5.0,87,0.00,,,0.00,,2013-10-10 11:21:00,
2013-10-10 04:42:00,52.0,48.0,29.98,ENE,62,0.0,2.0,87,0.00,,,0.00,,2013-10-10 11:42:00,
2013-10-10 04:53:00,52.0,48.0,29.98,ENE,62,0.0,0.0,87,0.00,,,0.00,,2013-10-10 11:53:00,
2013-10-10 05:11:00,52.0,49.0,29.98,ENE,70,0.0,4.0,88,0.00,,,0.00,,2013-10-10 12:11:00,
2013-10-10 05:21:00,51.0,48.0,29.98,NNE,32,2.0,4.0,88,0.00,,,0.00,,2013-10-10 12:21:00,
2013-10-10 05:41:00,51.0,48.0,29.97,ENE,77,4.0,6.0,89,0.00,,,0.00,,2013-10-10 12:41:00,
2013-10-10 05:51:00,51.0,48.0,29.97,East,81,2.0,5.0,89,0.00,,,0.00,,2013-10-10 12:51:00,
2013-10-10 06:11:00,50.0,47.0,29.97,East,101,2.0,5.0,89,0.00,,,0.00,,2013-10-10 13:11:00,
2013-10-10 06:21:00,50.0,47.0,29.97,ESE,102,2.0,5.0,89,0.00,,,0.00,,2013-10-10 13:21:00,
2013-10-10 06:42:00,50.0,47.0,29.98,East,81,0.0,4.0,90,0.00,,,0.00,,2013-10-10 13:42:00,
2013-10-10 06:52:00,50.0,47.0,29.98,East,81,0.0,0.0,90,0.00,,,0.00,,2013-10-10 13:52:00,
2013-10-10 07:11:00,50.0,47.0,29.99,East,80,0.0,2.0,91,0.00,,,0.00,,2013-10-10 14:11:00,
2013-10-10 07:21:00,50.0,47.0,29.99,East,79,0.0,0.0,91,0.00,,,0.00,,2013-10-10 14:21:00,
2013-10-10 07:42:00,49.0,46.0,29.99,ESE,112,0.0,0.0,91,0.00,,,0.00,,2013-10-10 14:42:00,
2013-10-10 07:52:00,49.0,47.0,29.98,ESE,112,0.0,0.0,92,0.00,,,0.00,,2013-10-10 14:52:00,
2013-10-10 08:11:00,50.0,48.0,29.98,ESE,112,0.0,1.0,92,0.00,,,0.00,,2013-10-10 15:11:00,
2013-10-10 08:22:00,50.0,48.0,29.99,East,101,4.0,6.0,92,0.00,,,0.00,,2013-10-10 15:22:00,
2013-10-10 08:43:00,50.0,48.0,29.99,ESE,111,4.0,7.0,92,0.00,,,0.00,,2013-10-10 15:43:00,
2013-10-10 08:54:00,51.0,49.0,30.00,ESE,105,1.0,4.0,92,0.00,,,0.00,,2013-10-10 15:54:00,
2013-10-10 09:13:00,51.0,49.0,30.00,East,100,1.0,3.0,92,0.00,,,0.00,,2013-10-10 16:13:00,
2013-10-10 09:23:00,51.0,49.0,30.01,East,87,5.0,7.0,92,0.00,,,0.00,,2013-10-10 16:23:00,
2013-10-10 09:42:00,52.0,50.0,30.01,ENE,77,0.0,1.0,92,0.00,,,0.00,,2013-10-10 16:42:00,
2013-10-10 09:53:00,53.0,51.0,30.01,ENE,77,0.0,0.0,92,0.00,,,0.00,,2013-10-10 16:53:00,
2013-10-10 10:12:00,54.0,52.0,30.01,ENE,77,0.0,0.0,92,0.00,,,0.00,,2013-10-10 17:12:00,
2013-10-10 10:23:00,54.0,51.0,30.01,ENE,78,0.0,0.0,91,0.00,,,0.00,,2013-10-10 17:23:00,
2013-10-10 10:42:00,54.0,51.0,30.02,ENE,78,0.0,0.0,91,0.00,,,0.00,,2013-10-10 17:42:00,
2013-10-10 10:52:00,55.0,52.0,30.02,ENE,78,0.0,0.0,91,0.00,,,0.00,,2013-10-10 17:52:00,
2013-10-10 11:12:00,55.0,52.0,30.02,ENE,77,0.0,0.0,91,0.00,,,0.00,,2013-10-10 18:12:00,
2013-10-10 11:21:00,55.0,52.0,30.03,ENE,71,0.0,0.0,90,0.00,,,0.00,,2013-10-10 18:21:00,
2013-10-10 11:42:00,56.0,53.0,30.03,ENE,72,0.0,1.0,90,0.00,,,0.00,,2013-10-10 18:42:00,
2013-10-10 11:52:00,56.0,53.0,30.03,ENE,72,0.0,0.0,89,0.00,,,0.00,,2013-10-10 18:52:00,
2013-10-10 12:11:00,57.0,53.0,30.03,South,183,1.0,2.0,88,0.00,,,0.00,,2013-10-10 19:11:00,
2013-10-10 12:21:00,57.0,53.0,30.03,South,187,0.0,3.0,88,0.00,,,0.00,,2013-10-10 19:21:00,
2013-10-10 12:42:00,58.0,54.0,30.03,South,187,1.0,3.0,87,0.00,,,0.00,,2013-10-10 19:42:00,
2013-10-10 12:52:00,59.0,55.0,30.03,South,191,3.0,4.0,87,0.00,,,0.00,,2013-10-10 19:52:00,
2013-10-10 13:12:00,59.0,54.0,30.03,West,265,4.0,5.0,85,0.00,,,0.00,,2013-10-10 20:12:00,
2013-10-10 13:22:00,59.0,54.0,30.03,West,265,5.0,6.0,85,0.00,,,0.00,,2013-10-10 20:22:00,
2013-10-10 13:42:00,59.0,54.0,30.04,West,275,4.0,6.0,84,0.00,,,0.00,,2013-10-10 20:42:00,
2013-10-10 13:52:00,59.0,54.0,30.03,West,275,3.0,4.0,84,0.00,,,0.00,,2013-10-10 20:52:00,
2013-10-10 14:12:00,59.0,54.0,30.04,West,275,2.0,5.0,83,0.00,,,0.00,,2013-10-10 21:12:00,
2013-10-10 14:21:00,59.0,54.0,30.04,West,275,3.0,4.0,83,0.00,,,0.00,,2013-10-10 21:21:00,
2013-10-10 14:43:00,59.0,54.0,30.04,West,275,2.0,4.0,82,0.00,,,0.00,,2013-10-10 21:43:00,
2013-10-10 14:54:00,59.0,54.0,30.04,West,275,2.0,5.0,82,0.00,,,0.00,,2013-10-10 21:54:00,
2013-10-10 15:13:00,60.0,54.0,30.04,West,275,2.0,3.0,81,0.00,,,0.00,,2013-10-10 22:13:00,
2013-10-10 15:24:00,60.0,54.0,30.04,West,275,2.0,4.0,80,0.00,,,0.00,,2013-10-10 22:24:00,
2013-10-10 15:43:00,58.0,53.0,30.05,NNW,334,13.0,14.0,83,0.00,,,0.00,,2013-10-10 22:43:00,
2013-10-10 15:53:00,57.0,53.0,30.05,North,352,16.0,19.0,88,0.00,,,0.00,,2013-10-10 22:53:00,
2013-10-10 16:12:00,56.0,53.0,30.06,North,354,14.0,17.0,89,0.00,,,0.00,,2013-10-10 23:12:00,
2013-10-10 16:23:00,55.0,52.0,30.06,North,350,20.0,23.0,90,0.00,,,0.00,,2013-10-10 23:23:00,
2013-10-10 16:43:00,54.0,51.0,30.06,North,6,15.0,21.0,91,0.00,,,0.00,,2013-10-10 23:43:00,
2013-10-10 16:52:00,53.0,50.0,30.06,NNE,27,7.0,16.0,91,0.00,,,0.00,,2013-10-10 23:52:00,
2013-10-10 17:11:00,54.0,52.0,30.07,North,9,11.0,15.0,92,0.00,,,0.00,,2013-10-11 00:11:00,
2013-10-10 17:21:00,54.0,52.0,30.07,North,4,10.0,15.0,92,0.00,,,0.00,,2013-10-11 00:21:00,
2013-10-10 17:42:00,54.0,52.0,30.07,North,4,9.0,18.0,92,0.00,,,0.00,,2013-10-11 00:42:00,
2013-10-10 17:52:00,53.0,51.0,30.07,NE,34,11.0,22.0,92,0.01,,,0.01,,2013-10-11 00:52:00,
2013-10-10 18:11:00,53.0,51.0,30.07,NNE,29,3.0,8.0,93,0.01,,,0.01,,2013-10-11 01:11:00,
2013-10-10 18:21:00,52.0,50.0,30.07,ENE,58,5.0,8.0,93,0.01,,,0.01,,2013-10-11 01:21:00,
2013-10-10 18:42:00,52.0,50.0,30.07,ENE,60,4.0,8.0,93,0.01,,,0.01,,2013-10-11 01:42:00,
2013-10-10 18:52:00,52.0,50.0,30.08,ENE,62,6.0,12.0,93,0.00,,,0.01,,2013-10-11 01:52:00,
2013-10-10 19:12:00,52.0,50.0,30.08,NNE,30,5.0,11.0,93,0.00,,,0.01,,2013-10-11 02:12:00,
2013-10-10 19:22:00,52.0,50.0,30.08,East,83,7.0,13.0,92,0.00,,,0.01,,2013-10-11 02:22:00,
2013-10-10 19:42:00,52.0,50.0,30.08,NE,48,5.0,11.0,92,0.00,,,0.01,,2013-10-11 02:42:00,
2013-10-10 19:52:00,52.0,49.0,30.08,NE,50,4.0,11.0,90,0.00,,,0.01,,2013-10-11 02:52:00,
2013-10-10 20:11:00,52.0,49.0,30.08,NNE,29,5.0,11.0,90,0.00,,,0.01,,2013-10-11 03:11:00,
2013-10-10 20:23:00,51.0,48.0,30.08,East,79,2.0,7.0,89,0.00,,,0.01,,2013-10-11 03:23:00,
2013-10-10 20:44:00,51.0,48.0,30.08,ENE,72,2.0,6.0,89,0.00,,,0.01,,2013-10-11 03:44:00,
2013-10-10 20:54:00,51.0,48.0,30.08,ENE,75,3.0,7.0,88,0.00,,,0.01,,2013-10-11 03:54:00,
2013-10-10 21:13:00,51.0,48.0,30.08,East,80,4.0,8.0,88,0.00,,,0.01,,2013-10-11 04:13:00,
2013-10-10 21:24:00,50.0,47.0,30.08,ENE,77,3.0,6.0,88,0.00,,,0.01,,2013-10-11 04:24:00,
2013-10-10 21:43:00,50.0,47.0,30.09,ENE,75,3.0,5.0,88,0.00,,,0.01,,2013-10-11 04:43:00,
2013-10-10 21:53:00,50.0,47.0,30.09,East,81,4.0,6.0,89,0.00,,,0.01,,2013-10-11 04:53:00,
2013-10-10 22:13:00,50.0,47.0,30.09,East,83,3.0,5.0,89,0.00,,,0.01,,2013-10-11 05:13:00,
2013-10-10 22:23:00,50.0,47.0,30.09,ENE,76,3.0,6.0,89,0.00,,,0.01,,2013-10-11 05:23:00,
2013-10-10 22:43:00,50.0,47.0,30.10,ENE,77,3.0,6.0,89,0.00,,,0.01,,2013-10-11 05:43:00,
2013-10-10 22:52:00,49.0,46.0,30.11,ENE,66,3.0,5.0,89,0.00,,,0.01,,2013-10-11 05:52:00,
2013-10-10 23:12:00,49.0,46.0,30.11,ENE,61,2.0,4.0,89,0.00,,,0.01,,2013-10-11 06:12:00,
2013-10-10 23:22:00,49.0,46.0,30.11,East,80,3.0,6.0,90,0.00,,,0.01,,2013-10-11 06:22:00,
2013-10-10 23:42:00,49.0,46.0,30.11,East,79,2.0,5.0,90,0.00,,,0.01,,2013-10-11 06:42:00,
2013-10-10 23:52:00,49.0,46.0,30.11,ENE,74,4.0,8.0,90,0.00,,,0.01,,2013-10-11 06:52:00,